This is the latest recevied weather packets stored in our database for station/object KQ4NAL. If no packets are shown the sender has not sent any weather packets the latest 10 day(s).
| Time | Temp. | Humidity | Pressure | Rain* | Wind** | Luminosity | Snow |
|---|---|---|---|---|---|---|---|
| 1777618509 | 2.78° C | 99% | 1015.4 hPa | 0 mm | - | 0 W/m² | - |
| 1777618206 | 2.78° C | 99% | 1015.5 hPa | 0 mm | - | 0 W/m² | - |
| 1777617903 | 2.22° C | 98% | 1015.5 hPa | 0 mm | - | 0 W/m² | - |
| 1777617598 | 2.22° C | 98% | 1015.7 hPa | 0 mm | - | 0 W/m² | - |
| 1777617294 | 2.78° C | 99% | 1015.8 hPa | 0 mm | - | 0 W/m² | - |
| 1777616992 | 2.78° C | 98% | 1015.8 hPa | 0 mm | - | 0 W/m² | - |
| 1777616687 | 2.78° C | 98% | 1015.7 hPa | 0 mm | - | 0 W/m² | - |
| 1777616382 | 2.78° C | 98% | 1015.8 hPa | 0 mm | - | 0 W/m² | - |
| 1777616079 | 2.78° C | 98% | 1015.8 hPa | 0 mm | - | 0 W/m² | - |
| 1777615776 | 2.78° C | 98% | 1015.9 hPa | 0 mm | - | 0 W/m² | - |
| 1777615473 | 2.78° C | 98% | 1016 hPa | 0 mm | - | 0 W/m² | - |
| 1777615172 | 2.78° C | 98% | 1016.2 hPa | 0 mm | - | 0 W/m² | - |
| 1777614868 | 2.78° C | 98% | 1016 hPa | 0 mm | - | 0 W/m² | - |
| 1777614565 | 2.78° C | 98% | 1016.2 hPa | 0 mm | - | 0 W/m² | - |
| 1777614260 | 2.78° C | 98% | 1016.3 hPa | 0 mm | - | 0 W/m² | - |
| 1777613955 | 2.78° C | 98% | 1016.2 hPa | 0 mm | - | 0 W/m² | - |
| 1777613652 | 3.33° C | 98% | 1016.2 hPa | 0 mm | - | 0 W/m² | - |
| 1777613349 | 3.33° C | 98% | 1016.1 hPa | 0 mm | - | 0 W/m² | - |
| 1777613046 | 3.33° C | 98% | 1016 hPa | 0 mm | - | 0 W/m² | - |
| 1777612742 | 2.78° C | 97% | 1016.2 hPa | 0 mm | - | 0 W/m² | - |
| 1777612438 | 3.33° C | 97% | 1016.1 hPa | 0 mm | - | 0 W/m² | - |
| 1777612133 | 3.33° C | 97% | 1016 hPa | 0 mm | - | 0 W/m² | - |
| 1777611829 | 3.33° C | 97% | 1016.2 hPa | 0 mm | - | 0 W/m² | - |
| 1777611525 | 3.89° C | 97% | 1015.9 hPa | 0 mm | - | 0 W/m² | - |
| 1777611222 | 3.89° C | 97% | 1016 hPa | 0 mm | - | 0 W/m² | - |
* Rain latest hour (hover to see other rain measurements)
** Current wind speed in m/s (hover to see current wind gust speed)